| time (UTC) | temp C | wind direction | speed KPH | gust KPH | rain 1hr cm | rain 24hr cm | rain mn cm | humidity % | barometer mb |
| 20260902213030 | 22 | 289 | 6.4 | 9.7 | 0.00 | 0.00 | 0.00 | 75 | 1018.5 |
| 20260902211530 | 21 | 284 | 6.4 | 9.7 | 0.00 | 0.00 | 0.00 | 76 | 1018.5 |
| 20260902210018 | 21 | 275 | 6.4 | 6.4 | 0.00 | 0.00 | 0.00 | 76 | 1018.4 |
| 20260902204523 | 21 | 271 | 4.8 | 9.7 | 0.00 | 0.00 | 0.00 | 76 | 1018.3 |
| 20260902203032 | 21 | 279 | 6.4 | 9.7 | 0.00 | 0.00 | 0.00 | 76 | 1018.2 |
| 20260902201539 | 21 | 274 | 8.0 | 11.3 | 0.00 | 0.00 | 0.00 | 76 | 1018.0 |
| 20260902200033 | 21 | 272 | 4.8 | 9.7 | 0.00 | 0.00 | 0.00 | 77 | 1018.0 |
| 20260902194526 | 21 | 283 | 6.4 | 9.7 | 0.00 | 0.00 | 0.00 | 79 | 1017.9 |
| 20260902193028 | 21 | 276 | 4.8 | 11.3 | 0.00 | 0.00 | 0.00 | 79 | 1017.8 |
| 20260902191533 | 21 | 281 | 4.8 | 9.7 | 0.00 | 0.00 | 0.00 | 79 | 1017.8 |
| 20260902190013 | 21 | 275 | 4.8 | 11.3 | 0.00 | 0.00 | 0.00 | 79 | 1017.9 |
| 20260902184518 | 22 | 278 | 8.0 | 17.7 | 0.00 | 0.00 | 0.00 | 79 | 1018.0 |
| 20260902183024 | 22 | 254 | 11.3 | 19.3 | 0.00 | 0.00 | 0.00 | 78 | 1017.9 |
| 20260902181529 | 22 | 246 | 12.9 | 19.3 | 0.00 | 0.00 | 0.00 | 77 | 1018.0 |
| 20260902180010 | 22 | 221 | 11.3 | 17.7 | 0.00 | 0.00 | 0.00 | 77 | 1018.1 |
| 20260902174520 | 22 | 259 | 11.3 | 20.9 | 0.00 | 0.00 | 0.00 | 77 | 1018.2 |
| 20260902173037 | 22 | 219 | 11.3 | 24.1 | 0.00 | 0.00 | 0.00 | 77 | 1018.2 |
| 20260902171536 | 22 | 246 | 16.1 | 24.1 | 0.00 | 0.00 | 0.00 | 76 | 1018.3 |
| 20260902170032 | 22 | 247 | 14.5 | 24.1 | 0.00 | 0.00 | 0.00 | 1018.3 | |
| 20260902164515 | 22 | 246 | 14.5 | 25.7 | 0.00 | 0.00 | 0.00 | 1018.4 | |
| 20260902163020 | 23 | 254 | 14.5 | 25.7 | 0.00 | 0.00 | 0.00 | 76 | 1018.6 |
| 20260902161526 | 22 | 269 | 19.3 | 25.7 | 0.00 | 0.00 | 0.00 | 76 | 1018.7 |
| 20260902160044 | 23 | 267 | 14.5 | 22.5 | 0.00 | 0.00 | 0.00 | 75 | 1018.7 |
| 20260902154542 | 23 | 221 | 14.5 | 24.1 | 0.00 | 0.00 | 0.00 | 75 | 1019.1 |
| 20260902153033 | 23 | 227 | 14.5 | 24.1 | 0.00 | 0.00 | 0.00 | 75 | 1019.1 |
| 20260902151523 | 23 | 221 | 14.5 | 20.9 | 0.00 | 0.00 | 0.00 | 75 | 1019.3 |
| 20260902150027 | 22 | 224 | 17.7 | 22.5 | 0.00 | 0.00 | 0.00 | 74 | 1019.3 |
| 20260902144532 | 22 | 236 | 12.9 | 22.5 | 0.00 | 0.00 | 0.00 | 74 | 1019.4 |
| 20260902143013 | 22 | 241 | 14.5 | 22.5 | 0.00 | 0.00 | 0.00 | 74 | 1019.6 |
| 20260902141521 | 22 | 246 | 16.1 | 25.7 | 0.00 | 0.00 | 0.00 | 74 | 1019.5 |
| 20260902140026 | 22 | 212 | 12.9 | 20.9 | 0.00 | 0.00 | 0.00 | 71 | 1019.6 |
| 20260902134532 | 22 | 234 | 11.3 | 19.3 | 0.00 | 0.00 | 0.00 | 73 | 1019.8 |
| 20260902133040 | 22 | 236 | 11.3 | 20.9 | 0.00 | 0.00 | 0.00 | 74 | 1019.9 |
| 20260902131517 | 23 | 217 | 11.3 | 22.5 | 0.00 | 0.00 | 0.00 | 71 | 1019.9 |
| 20260902130023 | 22 | 251 | 16.1 | 24.1 | 0.00 | 0.00 | 0.00 | 72 | 1020.0 |
| 20260902124527 | 22 | 200 | 14.5 | 25.7 | 0.00 | 0.00 | 0.00 | 73 | 1020.0 |
| 20260902123045 | 22 | 189 | 16.1 | 24.1 | 0.00 | 0.00 | 0.00 | 72 | 1020.0 |
| 20260902121534 | 22 | 226 | 14.5 | 27.4 | 0.00 | 0.00 | 0.00 | 1020.0 | |
| 20260902120032 | 22 | 219 | 19.3 | 27.4 | 0.00 | 0.00 | 0.00 | 1020.0 | |
| 20260902114537 | 22 | 237 | 19.3 | 25.7 | 0.00 | 0.00 | 0.00 | 1020.1 | |
| 20260902113030 | 22 | 216 | 17.7 | 24.1 | 0.00 | 0.00 | 0.00 | 74 | 1020.2 |
| 20260902111543 | 21 | 232 | 14.5 | 22.5 | 0.00 | 0.00 | 0.00 | 75 | 1020.4 |
| 20260902110017 | 21 | 231 | 14.5 | 22.5 | 0.00 | 0.00 | 0.00 | 76 | 1020.6 |
| 20260902104525 | 21 | 234 | 14.5 | 22.5 | 0.00 | 0.00 | 0.00 | 76 | 1020.7 |
| 20260902103007 | 21 | 226 | 14.5 | 22.5 | 0.00 | 0.00 | 0.00 | 75 | 1020.8 |
| 20260902101513 | 21 | 243 | 12.9 | 20.9 | 0.00 | 0.00 | 0.00 | 76 | 1020.7 |
| 20260902100018 | 20 | 237 | 12.9 | 20.9 | 0.00 | 0.00 | 0.00 | 78 | 1020.5 |
| 20260902094524 | 20 | 259 | 12.9 | 22.5 | 0.00 | 0.00 | 0.00 | 79 | 1020.5 |
| 20260902093006 | 20 | 269 | 9.7 | 20.9 | 0.00 | 0.00 | 0.00 | 80 | 1020.4 |
| 20260902091514 | 20 | 261 | 12.9 | 19.3 | 0.00 | 0.00 | 0.00 | 81 | 1020.0 |
| 20260902090015 | 20 | 253 | 11.3 | 16.1 | 0.00 | 0.00 | 0.00 | 82 | 1020.1 |
| 20260902084520 | 19 | 229 | 8.0 | 16.1 | 0.00 | 0.00 | 0.00 | 83 | 1019.9 |
| 20260902083024 | 19 | 242 | 8.0 | 12.9 | 0.00 | 0.00 | 0.00 | 83 | 1020.0 |
| 20260902081508 | 18 | 270 | 11.3 | 14.5 | 0.00 | 0.00 | 0.00 | 83 | 1020.0 |
| 20260902080013 | 17 | 247 | 4.8 | 9.7 | 0.00 | 0.00 | 0.00 | 87 | 1019.9 |
| 20260902074520 | 17 | 304 | 3.2 | 9.7 | 0.00 | 0.00 | 0.00 | 90 | 1019.9 |
| 20260902073034 | 16 | 283 | 6.4 | 11.3 | 0.00 | 0.00 | 0.00 | 91 | 1019.6 |
| 20260902071534 | 16 | 277 | 3.2 | 11.3 | 0.00 | 0.00 | 0.00 | 92 | 1019.5 |
| 20260902070011 | 16 | 283 | 4.8 | 9.7 | 0.00 | 0.00 | 0.00 | 91 | 1019.5 |
| 20260902064533 | 16 | 309 | 6.4 | 14.5 | 0.00 | 0.00 | 0.00 | 91 | 1019.4 |
| 20260902063022 | 16 | 300 | 9.7 | 17.7 | 0.00 | 0.00 | 0.00 | 92 | 1019.3 |
| 20260902061528 | 15 | 292 | 9.7 | 14.5 | 0.00 | 0.00 | 0.00 | 91 | 1018.9 |
| 20260902060009 | 16 | 290 | 9.7 | 14.5 | 0.00 | 0.00 | 0.00 | 91 | 1019.0 |
| 20260902054515 | 16 | 303 | 9.7 | 16.1 | 0.00 | 0.00 | 0.00 | 91 | 1019.0 |
| 20260902053020 | 16 | 311 | 11.3 | 19.3 | 0.00 | 0.00 | 0.00 | 91 | 1018.9 |
| 20260902051527 | 16 | 284 | 12.9 | 17.7 | 0.00 | 0.00 | 0.00 | 91 | 1018.8 |
| 20260902050034 | 16 | 296 | 12.9 | 19.3 | 0.00 | 0.00 | 0.00 | 91 | 1018.8 |
| 20260902044512 | 16 | 294 | 9.7 | 17.7 | 0.00 | 0.00 | 0.00 | 90 | 1018.9 |
| 20260902043020 | 16 | 311 | 12.9 | 17.7 | 0.00 | 0.00 | 0.00 | 90 | 1018.8 |
| 20260902041540 | 16 | 288 | 12.9 | 20.9 | 0.00 | 0.00 | 0.00 | 90 | 1018.8 |
| 20260902040030 | 16 | 292 | 12.9 | 19.3 | 0.00 | 0.00 | 0.00 | 90 | 1018.9 |
| 20260902034533 | 16 | 318 | 12.9 | 20.9 | 0.00 | 0.00 | 0.00 | 90 | 1019.0 |
| 20260902033018 | 16 | 309 | 12.9 | 19.3 | 0.00 | 0.00 | 0.00 | 90 | 1018.8 |
| 20260902031525 | 15 | 294 | 9.7 | 14.5 | 0.00 | 0.00 | 0.00 | 90 | 1018.9 |
| 20260902030028 | 15 | 292 | 9.7 | 14.5 | 0.00 | 0.00 | 0.00 | 90 | 1018.8 |
| 20260902024530 | 16 | 278 | 12.9 | 20.9 | 0.00 | 0.00 | 0.00 | 89 | 1018.7 |
| 20260902023030 | 16 | 288 | 11.3 | 17.7 | 0.00 | 0.00 | 0.00 | 89 | 1018.9 |
| 20260902021519 | 16 | 296 | 12.9 | 17.7 | 0.00 | 0.00 | 0.00 | 88 | 1019.2 |
| 20260902020044 | 16 | 298 | 11.3 | 17.7 | 0.00 | 0.00 | 0.00 | 88 | 1019.3 |
| 20260902014529 | 16 | 290 | 9.7 | 14.5 | 0.00 | 0.00 | 0.00 | 87 | 1019.5 |
| 20260902013037 | 16 | 301 | 8.0 | 12.9 | 0.00 | 0.00 | 0.00 | 87 | 1019.6 |
| 20260902011519 | 16 | 300 | 8.0 | 12.9 | 0.00 | 0.00 | 0.00 | 87 | 1019.8 |
| 20260902010032 | 17 | 306 | 6.4 | 11.3 | 0.00 | 0.00 | 0.00 | 87 | 1020.0 |
| 20260902004530 | 17 | 298 | 6.4 | 11.3 | 0.00 | 0.00 | 0.00 | 87 | 1020.0 |
| 20260902003036 | 17 | 294 | 8.0 | 11.3 | 0.00 | 0.00 | 0.00 | 87 | 1020.0 |
| 20260902001531 | 17 | 294 | 6.4 | 11.3 | 0.00 | 0.00 | 0.00 | 86 | 1020.1 |
| 20260902000028 | 17 | 288 | 6.4 | 11.3 | 0.00 | 0.00 | 0.00 | 86 | 1020.1 |
| 20260901234530 | 17 | 300 | 6.4 | 11.3 | 0.00 | 0.00 | 0.00 | 86 | 1020.0 |
| 20260901233030 | 17 | 290 | 8.0 | 16.1 | 0.00 | 0.00 | 0.00 | 86 | 1019.9 |
| 20260901231531 | 17 | 283 | 11.3 | 17.7 | 0.00 | 0.00 | 0.00 | 86 | 1019.8 |
| 20260901230044 | 17 | 272 | 12.9 | 16.1 | 0.00 | 0.00 | 0.00 | 86 | 1019.8 |
| 20260901224526 | 17 | 278 | 11.3 | 16.1 | 0.00 | 0.00 | 0.00 | 87 | 1019.7 |
| 20260901223033 | 18 | 271 | 11.3 | 17.7 | 0.00 | 0.00 | 0.00 | 87 | 1019.8 |
| 20260901221531 | 18 | 267 | 11.3 | 19.3 | 0.00 | 0.00 | 0.00 | 88 | 1019.9 |
| 20260901220043 | 18 | 267 | 11.3 | 16.1 | 0.00 | 0.00 | 0.00 | 89 | 1020.0 |
| 20260901214522 | 18 | 246 | 11.3 | 17.7 | 0.00 | 0.00 | 0.00 | 89 | 1020.0 |